Aérodrome :
LOGIN :

S'inscrire | Disclaimer

   EN    FR    IT 

 










Légende :    VFR   VFR Marginal   IFR   IFR Intensif   IFR Très Intensif
Visi : 
Plafond : 
>= 8 km
>= 3000ft
5 à 8 km
1000 à 3000 ft
1500m à 5 km
500 à 1000 ft
800 à 1500m
200 à 500 ft
< 800m
< 200 ft
Symboles :   Orages  Brouillard  Fortes neiges  Fortes précipitations  Vent > 20 kt
SIGMETs :   Divers  Orages  Givrage  Turbulence  Onde Orograph.  Cendres Volcan.






- Altitude de l'aérodrome : 138 ft
- Code IATA : RLG


ETNL - Rostock Laage

DERNIER METAR :
  • 270220Z 20005KT 9999 BKN220 08/07 Q1003 BLU+

METARs EXPIRÉS :
  • 270120Z 19006KT 9999 BKN220 08/07 Q1003 BLU+
  • 270020Z 18004KT 9999 BKN210 08/07 Q1003 BLU+

TAF TAF ETNL
Valide du 27 à 00h jusqu'au 27 à 12h UTC


262300Z 2700/2712 20005KT 9999 NSW BKN150
TEMPO 2700/2708 18003KT 4000 BR SCT007 SCT150
TEMPO 2708/2712 21010KT 9999 NSW BKN015 BKN050 BY ETGL



MET'MAP, la Météo Aéronautique d'un coup d'oeil ! - Copyright ORBIFLY Décembre 2007 - Disclaimer

ORBIFLY MET'MAP TEAM :

Programmation & Développement : Alexandra Zaïnal
Sur une idée originale de : Baudouin d'Aumeries
Assistance à la programmation : Marc-Olivier Méhu
Soutien technique & logistique : Manuel Goepfert

Contact : metmap@orbifly.com




SOURCES & CREDITS :

   NOAA